Location: Düngen
(52.0952°N, 10.0219°E)
Time: 16:09:21
(UTC+00:00)

Okean 1-7 Rocket - Pass Details

Date: 11 March 2026
Orbit: 609 x 643 km, 82.5° (Epoch: 14 April)

Event Time Altitude Azimuth Distance (km) Brightness Sun altitude
Rises 18:06:09 0° 177° (S) 2,940 7.0 -8.3°
Reaches altitude 10° 18:08:25 10° 174° (S) 2,037 6.1 -8.7°
Maximum altitude 18:12:51 58° 96° (E) 753 3.7 -9.3°
Drops below altitude 10° 18:17:19 10° 17° (NNE) 2,050 6.1 -10.0°
Sets 18:19:36 0° 14° (NNE) 2,962 7.0 -10.4°
